Regional Weather Roundup
Issued by NWS

Home | Current Version | Previous Version | Text Only | Print | Product List | Glossary Off
Versions: 1 2 3 4 5 6 7 8 9 10 11 12 13 14 15 16 17 18 19 20 21 22 23 24 25 26 27 28

000
ASUS45 KBOU 170210
RWRCO

WEATHER ROUNDUP FOR COLORADO
NATIONAL WEATHER SERVICE DENVER/BOULDER CO
700 PM MST SAT DEC 16 2017

NOTE: "FAIR" INDICATES FEW OR NO CLOUDS BELOW 12000 FEET WITH NO
SIGNIFICANT WEATHER AND/OR OBSTRUCTIONS TO VISIBILITY.

COZ001>005-013-030-031-170300-
...NORTHWEST COLORADO...

CITY           SKY/WX    TMP DP  RH WIND       PRES   REMARKS
CRAIG          FAIR      23  15  71 CALM      29.82R
HAYDEN         FAIR      27  17  66 CALM      29.82R
MEEKER         FAIR      28  12  51 CALM      29.80R
RABBIT EARS PA MOCLDY    27  -9  20 NW6       29.84R WCI  20
STEAMBOAT SPGS FAIR      29  14  54 CALM      29.80R
WALDEN         CLOUDY    25  14  63 NW6       29.82R WCI  18
$$

COZ006>008-011-170300-
...WEST CENTRAL VALLEYS...

CITY           SKY/WX    TMP DP  RH WIND       PRES   REMARKS
GRAND JUNCTION FAIR      29   7  39 CALM      29.81R
MONTROSE       FAIR      31   8  38 SE10      29.83R WCI  22
EAGLE          CLOUDY    25  14  63 E3        29.84R
RIFLE          FAIR      30  10  43 CALM      29.81R
DELTA          FAIR      37   7  28 NE6       29.81R
NUCLA          FAIR      37  -2  18 E3        29.83R
$$

COZ017>023-064>068-170300-
...SOUTHWEST COLORADO...

CITY           SKY/WX    TMP DP  RH WIND       PRES   REMARKS
DURANGO        FAIR      36   9  32 CALM      29.79R
CORTEZ         FAIR      30  11  45 NE3       29.82R
PAGOSA SPRINGS FAIR      28   0  29 CALM      29.82R
TELLURIDE      CLOUDY    35  -6  17 CALM      29.84S
WOLF CREEK PAS CLOUDY    21   3  45 SW10      29.92R WCI  10
$$

COZ009-010-012-014-032>034-037-058>063-170300-
...CENTRAL COLORADO...

CITY           SKY/WX    TMP DP  RH WIND       PRES   REMARKS
ASPEN          CLOUDY    31  16  54 NW3       29.78R
BUENA VISTA    FAIR      21  14  75 CALM      29.83R
COPPER MTN     NOT AVBL
BERTHOUD PASS  CLOUDY    18   7  62 SE15G21   29.89R WCI   3
COTTONWOOD PAS FAIR      36   7  30 E5        29.86R
GUNNISON       FAIR      23   9  55 CALM      29.84R
KREMMLING      FAIR      27  18  69 CALM      29.83S
LEADVILLE      FAIR      27   4  37 CALM      29.82R
MONARCH PASS   FAIR      21   3  45 NE14      29.98R WCI   8
SALIDA         FAIR      38   4  24 E6        29.90R
SUNLIGHT       CLOUDY    27  -6  24 SW9       29.87R WCI  17
WILKERSON PASS MOCLDY    23   0  36 SE7       29.91R WCI  15
$$

COZ069>075-170300-
...SAN LUIS VALLEY/SANGRE DE CRISTO MOUNTAINS...

CITY           SKY/WX    TMP DP  RH WIND       PRES   REMARKS
ALAMOSA        FAIR      24  14  65 NW5       29.79R WCI  18
DEL NORTE      FAIR      24  10  53 W6        29.80R WCI  17
LA VETA PASS   FAIR      25   3  39 NE20        N/A  WCI  11
SAGUACHE       FAIR      23   9  54 NW5       29.79R WCI  17
$$

COZ035-036-038>040-170300-
...NORTHERN COLORADO FRONT RANGE...

CITY           SKY/WX    TMP DP  RH WIND       PRES   REMARKS
DENVER INTL AP MOCLDY    28  16  60 E7        29.87R WCI  21
DMNS CITY PARK NOT AVBL
AURORA         MOCLDY    30  19  62 E9        29.87R WCI  22
FRONT RANGE AP MOCLDY    32  21  64 E9        29.88R WCI  24
ERIE MUNI ARPT FAIR      35  18  49 W6        29.93R WCI  30
BOULDER MUN AP FAIR      36  19  51 N3        29.89R
CENTENNIAL     MOCLDY    33  18  53 E7        29.86R WCI  27
BROOMFIELD     MOCLDY    37  18  44 E6        29.88R
FORT COLLINS   FAIR      37  22  54 E9        29.90R
LONGMONT       FAIR      38  20  49 NW3       29.91R
$$

COZ041-046-047-076>085-087-088-170300-
...PIKES PEAK/PALMER DIVIDE AND SOUTHERN FOOTHILLS...

CITY           SKY/WX    TMP DP  RH WIND       PRES   REMARKS
COLO. SPRINGS  FAIR      34  12  40 NE13      29.84R WCI  25
A. F. ACADEMY  CLOUDY    30  10  43 N10       29.84R WCI  21
SCHRIEVER AFB  FAIR      31  12  44 N10       29.85R WCI  23
CHEYENNE MTN   MOCLDY    36   9  32 NW10      29.79R
ELLICOTT         N/A    N/A N/A N/A NE10      29.83R
FALCON         FAIR      31  12  46 N9        29.86R WCI  22
FORT CARSON    FAIR      34  11  38 N7        29.83R WCI  27
LIMON          FAIR      26  19  74 N10       29.87R WCI  16
MONUMENT HILL  FAIR      28  14  54 NE6       29.87R WCI  22
CANON CITY     FAIR      37  12  35 SE6       29.81R
WALSENBURG     FAIR      34   9  35 N7        29.84R WCI  28
TRINIDAD       FAIR      36  13  38 N9        29.80R
$$

COZ042>045-048>051-090-091-170300-
...NORTHEAST COLORADO...

CITY           SKY/WX    TMP DP  RH WIND       PRES   REMARKS
GREELEY ARPT   FAIR      35  23  61 E10       29.90R WCI  27
AKRON          MOCLDY    25  21  85 NE8       29.90R WCI  16
BURLINGTON     FAIR      33  24  69 NE14      29.85R WCI  23
WRAY           FAIR      32  30  93 N14       29.91R WCI  22
YUMA           FAIR      30  27  86 N12       29.91R WCI  21
STERLING       CLOUDY    36  30  80 NE8       29.92R
HOLYOKE        CLOUDY    37  32  81 NE14      29.92R
FORT MORGAN    FAIR      32  24  71 NE13      29.91R WCI  22
$$

COZ086-089-092>099-170300-
...SOUTHEAST COLORADO...

CITY           SKY/WX    TMP DP  RH WIND       PRES   REMARKS
PUEBLO         FAIR      39  13  34 NE12      29.82R
LA JUNTA       FAIR      39  16  39 N16       29.79R
LAMAR          FAIR      37  16  42 NE9       29.74R
SPRINGFIELD      N/A     30  14  51 SW7       29.71S WCI  23
$$




USA.gov is the U.S. government's official web portal to all federal, state and local government web resources and services.